Weather in Valeryanovka

Russia / Kemerovo Oblast     56°00′39″N   88°23′05″E
temp.,
°C
wind,
m/s
gust,
m/s
humid.,
%
clouds,
%
prec.,
mm/h
press.,
hPa
HPBL,
m
15 may, sat
sat1501:00+7wsw365296 0.0 1021120
04:00+8wsw5105193 0.0 1020382
07:00+10sw8165077 0.0 1019571
10:00+12wsw91748100 0.0 1017758
13:00+17wsw11154593 0.1 10161333
16:00+18wsw101546100 0.0 10161374
19:00+18sw101751100 0.0 1013865
22:00+15w91781100 1.8 1014808
16 may, sun
sun1601:00+13wnw3797100 3.1 1015333
04:00+11n2396100 0.0 1015184
07:00+10ene3492100 0.3 1016250
10:00+11e3388100 0.1 1015284
13:00+12ene3487100 0.2 1013294
16:00+10e4694100 5.4 1010299
19:00+9e3493100 6.4 1010189
22:00+7ne5895100 1.0 1010344
17 may, mon
mon1701:00+7ne3793100 1.3 1012365
04:00+6nne3789100 0.1 1014348
07:00+6ne36755 0.1 1016276
10:00+9nne34516 0.0 1017885
13:00+12n334487 0.0 10171289
16:00+13nw3345100 0.0 10171556
19:00+12wnw2354100 0.0 1016794
22:00+9wnw116475 0.0 101610
18 may, tue
tue1801:00+8s2268100 0.0 101421
04:00+8s3983100 0.8 1011335
07:00+9s4995100 11.4 1008562
10:00+11wsw41193100 1.0 1005598
13:00+12w4998100 8.0 1004429
16:00+12nnw469495 0.8 1004373
19:00+12n4692100 1.1 1005549
22:00+8n2495100 0.1 1007381
19 may, wed
wed1901:00+8ne2396100 0.3 1006228
04:00+7ne4698100 4.3 1004313
07:00+6ne51096100 10.9 1004499
10:00+8nne4681100 1.9 1005852
13:00+11n5653100 2.0 10061640
16:00+12n6745100 0.0 10062106
19:00+9n694994 0.0 10081022
22:00+6n512539 0.0 1010331